Regional Weather Roundup
Issued by NWS Charleston, SC

Current Version | Previous Version | Text Only | Print | Product List | Glossary Off
Versions: 1 2 3 4 5 6 7 8 9 10 11 12 13 14 15 16 17 18 19 20 21 22 23 24 25 26 27 28 29 30 31 32 33 34 35 36 37 38 39 40 41 42 43 44 45 46 47 48 49 50

000
ASUS42 KCHS 312313
RWRCHS

REGIONAL WEATHER ROUNDUP
NATIONAL WEATHER SERVICE CHARLESTON SC
700 PM EDT WED AUG 31 2016

NOTE: "FAIR" INDICATES FEW OR NO CLOUDS BELOW 12,000 FEET WITH NO
SIGNIFICANT WEATHER AND/OR OBSTRUCTIONS TO VISIBILITY.

NOT ALL STATIONS ARE QUALITY CONTROLLED. USE DATA WITH CAUTION...
ESPECIALLY DEWPOINT OBSERVATIONS.

SCZ027-030-031-034>040-042>050-010000-
...SOUTHEAST SOUTH CAROLINA...

CITY           SKY/WX    TMP DP  RH WIND       PRES   REMARKS
N CHARLESTON   PTCLDY    82  73  74 NE9       29.89S
WATERFRONT PRK   N/A     82  76  82 E13       29.87R
MOUNT PLEASANT MOCLDY    81  73  78 E6        29.89S
JOHNS ISLAND   MOCLDY    81  75  83 E9        29.89S
PINOPOLIS        N/A     84  73  70 E6        29.84R HX  91
MONCKS CORNER  MOCLDY    82  70  65 E5        29.90S
SUMMERVILLE    MOCLDY    82  72  69 E3        29.90S
BEAUFORT MCAS  PTCLDY    82  73  74 E9        29.88R
BEAUFORT ARPT  FAIR      81  73  78 E14       29.87S
HILTON HEAD IS PTCLDY    82  75  78 NE8       29.88S
WALTERBORO     CLEAR     84  72  65 SE6       29.90S
ALLENDALE      FAIR      84  72  65 E6G13     29.88R

...SOUTHERN MIDLANDS AND PEE DEE...

CITY           SKY/WX    TMP DP  RH WIND       PRES   REMARKS
GEORGETOWN     FAIR      81  72  74 SE7       29.92S
KINGSTREE      FAIR      77  73  88 NE3       29.91F
ORANGEBURG     CLOUDY    81  71  71 E5        29.90S
BARNWELL       NOT AVBL
AIKEN          FAIR      82  70  65 NE6       29.93S
MANNING        FAIR      75  73  94 CALM      29.91F
COLUMBIA       MOCLDY    82  71  69 SE9       29.90S
SUMTER         PTCLDY    77  73  88 VRB3      29.90S
FLORENCE       LGT RAIN  78  70  76 S12       29.93R
MYRTLE BEACH   MOCLDY    82  68  61 SE7       29.94R
N MYRTLE BEACH CLEAR     81  74  79 SE6       29.92S

$$

GAZ063-065-086>088-099>101-113>116-118-119-134>141-150-010000-
...SOUTHEAST GEORGIA...

CITY           SKY/WX    TMP DP  RH WIND       PRES   REMARKS
SAVANNAH ARPT  MOCLDY    83  70  64 E9        29.88R
HUNTER AAF     MOCLDY    82  78  88 E7        29.85S HX  90
FORT STEWART   PTCLDY    81  75  82 CALM      29.85S
STATESBORO     CLOUDY    86  74  67 SE5       29.88R HX  94
SYLVANIA       NOT AVBL
CLAXTON        FAIR      83  76  79 E3        29.88S HX  90

...CSRA...CENTRAL AND FAR SOUTHEAST GEORGIA...

CITY           SKY/WX    TMP DP  RH WIND       PRES   REMARKS
THOMSON        MOSUNNY   88  73  62 CALM      29.94R HX  96
AUGUSTA-BUSH   LGT RAIN  78  73  84 SE9       29.88R
AUGUSTA-DANIEL MOSUNNY   89  67  47 E12       29.89S HX  92
SWAINSBORO     FAIR      81  75  83 E3        29.89S
VIDALIA        CLOUDY    84  77  79 SE5       29.87F HX  94
EASTMAN        CLOUDY    86  64  46 N9        29.90R
HAZLEHURST     MOCLDY    84  77  80 SE3       29.86S HX  94
ALMA           HVY RAIN  77  76  96 SE6       29.86S VSB 3/4
WAYCROSS         N/A     83  80  91 S9        29.86S HX  96
JESUP          CLOUDY    79  79 100 E3        29.87F
BAXLEY         CLOUDY    82  81  94 E3        29.86F HX  95
BRUNSWICK      TSTM      77  77 100 N3        29.87F
SAINT SIMONS   CLOUDY    77  75  93 S7        29.87S

$$

SCZ027-028-034-036>038-045-046-048>050-GAZ119-141-010000-
...LAKE AND SUPPLEMENTAL COASTAL OBSERVATIONS...

STATION/POSITION TIME  TEMP    WIND        PRES    WAVE   SWELL
                       AIR SEA DIR/SP/G            HT/PER HT/PER/DIR
                 (UTC) (F)     (DEG/KT/KT) (MB)    (FT/S) (FT/S/D)
WINYAH BAY       2145   82     110/  9     1012.0
LAKE MURRAY      2200   80      10/  3/  4 1012.5S
ACE BASIN NERRS  NOT AVBL
FORT PULASKI     2200   81 84                N/A
SAPELO ISLAND    2200   77      20/  4     1011.0S

$$

ANZ835-935-AMZ111-154-330-350-352-354-370-450-454-472-010000-
...C-MAN AND BUOY OBSERVATIONS...

STATION/POSITION TIME  TEMP    WIND        PRES    WAVE   SWELL
                       AIR SEA DIR/SP/G            HT/PER HT/PER/DIR
                 (UTC) (F)     (DEG/KT/KT) (MB)    (FT/S) (FT/S/D)
BUOY 41004       2250   79 85   80/ 17/ 21 1010.4F   5/ 5   2/120/ 8
BUOY 41008       2250   79 85   30/  4/  4 1010.6F   4/ 6   3/140/ 6
FOLLY BEACH CMAN 2200   81      80/ 14/ 16 1012.3S
CAPERS NEARSHORE 2208   81 84   90/ 14/ 19 1012.1R
FRIPP NEARSHORE  2208   81 85   80/ 16/ 19 1010.6F


STATION/POSITION TIME  TEMP    WIND        PRES    WAVE   SWELL
                       AIR SEA DIR/SP/G            HT/PER HT/PER/DIR
                 (UTC) (F)     (DEG/KT/KT) (MB)    (FT/S) (FT/S/D)
5E ST. MARYS GA  2201      85                N/A     4/ 6   2/ 80/11
FRYING PAN BUOY  2200   80 84   50/ 10/ 14 1013.1F
BUOY 41025       2250   81 85   CALM  /  2 1013.3F   3/10   3/100/10
CAPE LOOKOUT NC  2200   79     230/  4/  4 1013.7F
BUOY 41002       2250   81 84  190/  4/  6 1014.6F   4/11   3/ 40/11
BUOY 41010       NOT AVBL
ST AUGUSTINE FL  2300   80 83  250/  8/ 10 1012.9R


$$




USA.gov is the U.S. government's official web portal to all federal, state and local government web resources and services.